Lid_Strength_Index
1 0 0 0 0 -0 0 -0 -0 -0 -1 -0 -0 -0 -0 0 -0 0 0 0 1 1 0 1 1 0 1 1 1 1 2 2 4 2 1 -0 -0 -0 -0 -1 -1 -1 -1
0 0 0 0 0 0 0 0 -0 0 -0 -0 -0 -0 0 -0 -0 -0 0 0 1 1 1 1 1 0 0 0 1 1 2 1 3 4 2 1 0 -0 -0 -0 -0 -1 -1
1 1 1 1 1 1 0 0 -0 -0 -0 0 2 1 1 0 -0 -0 -0 0 0 0 0 0 1 0 1 1 1 1 1 2 2 3 3 1 1 0 1 0 -0 -0 -1
1 1 1 1 1 2 2 3 3 3 2 2 0 -0 -0 -0 -0 -0 -0 0 0 0 -0 0 0 1 1 1 1 1 1 2 2 3 3 2 2 1 1 2 2 0 1
1 1 1 2 3 3 3 3 2 1 0 -0 -0 -0 -0 -0 0 -0 0 0 0 0 0 0 0 0 1 1 1 1 1 2 2 3 3 3 3 3 3 2 2 1 2
2 4 3 3 3 2 2 2 1 0 -0 -0 -0 0 0 0 1 0 0 1 1 1 1 0 0 0 0 1 1 1 1 1 2 2 3 4 3 2 2 2 2 3 4
3 3 3 3 2 2 2 1 1 1 0 1 0 0 1 0 2 2 2 1 1 1 1 1 1 1 0 0 1 1 1 1 1 1 3 3 3 2 1 2 2 2 3
4 4 3 3 3 3 2 2 2 2 2 2 2 1 1 1 2 3 3 -0 0 0 1 1 1 1 0 1 1 1 1 1 1 1 1 1 1 1 1 1 1 1 1
5 4 4 2 2 2 3 3 2 1 1 2 1 1 0 1 3 3 3 1 1 1 1 0 0 1 3 4 5 2 2 1 2 4 4 4 4 3 1 1 2 3 4
4 3 3 2 2 3 3 2 1 1 0 0 0 0 2 0 3 3 3 1 2 2 1 0 1 2 5 6 5 3 3 2 2 1 1 1 1 1 3 -0 1 3 3
3 2 2 2 3 2 2 0 0 0 0 1 0 0 -0 -0 -0 3 4 0 1 2 2 2 1 4 6 7 7 4 2 1 2 2 1 1 1 1 0 0 0 1 3
3 3 2 1 1 1 0 0 0 0 1 1 1 1 0 -0 2 2 3 3 2 1 2 2 2 5 6 6 5 6 7 4 1 2 2 2 2 2 1 1 1 -0 -1
1 1 1 1 1 0 0 0 1 1 1 1 1 2 1 0 -0 2 3 3 2 1 1 2 3 5 5 4 5 6 5 3 2 3 3 2 2 1 2 2 1 0 1
1 1 1 1 0 0 1 2 2 2 2 2 2 2 1 1 1 1 0 0 1 0 1 1 2 2 3 3 3 4 5 5 5 6 5 4 3 3 3 2 3 2 2
1 1 1 1 1 1 1 1 2 2 3 2 1 1 2 2 2 6 5 1 0 1 1 2 3 3 2 3 3 4 4 4 5 5 5 6 5 5 4 4 2 2 2
1 1 1 1 2 2 1 2 6 6 6 7 8 6 2 5 8 8 8 7 6 6 1 2 4 4 4 3 3 4 4 4 3 4 5 5 6 5 4 5 4 4 4
1 1 2 2 2 1 1 1 2 4 6 7 8 8 9 8 8 8 8 7 5 3 2 2 2 3 3 4 3 3 4 4 3 4 5 4 4 5 6 6 5 5 5
1 4 2 1 1 1 0 0 -0 0 0 0 6 5 6 7 8 8 8 6 1 1 1 2 1 2 3 4 4 3 3 4 5 4 4 4 5 6 6 6 5 5 5
1 1 1 0 0 1 0 -0 -0 -0 0 0 0 3 3 7 7 7 7 1 1 1 1 1 1 1 1 1 0 1 2 2 3 3 4 4 4 4 5 5 5 6 6
0 1 1 1 1 1 0 0 0 0 1 1 1 0 -0 1 1 1 0 0 0 0 1 -0 -0 0 0 0 0 0 1 1 1 2 2 3 2 2 3 4 4 5 5
1 0 1 1 1 1 1 1 0 0 1 1 0 -0 6 1 1 1 1 0 0 0 -0 -1 -0 0 0 -0 -0 0 0 1 1 1 1 2 1 3 3 2 3 3 4
1 1 1 1 1 1 1 1 1 1 1 1 0 0 4 1 1 1 -0 -0 -1 -1 -1 -1 -0 -0 -0 -0 -1 -0 0 -0 0 0 1 1 1 2 2 3 3 3 3
1 1 1 1 1 2 1 1 1 1 1 1 1 1 1 1 0 0 -0 -1 -1 -1 -1 -1 -1 -1 -1 -1 -1 -2 -1 -0 -1 -1 -0 -0 -0 0 0 1 1 1 1
1 1 1 1 1 1 1 2 1 2 1 1 1 1 1 -0 0 0 -0 -1 -1 -1 -1 -1 -1 -1 -1 -1 -2 -2 -1 -1 -2 -1 -1 -1 -0 0 0 0 1 1 -0
0 1 1 1 1 1 2 1 1 1 1 1 0 0 1 0 0 0 -0 -1 -1 -1 -1 -1 -1 -1 -1 -1 -0 -1 4 8 1 5 -1 -1 -0 0 0 0 0 1 1
1 1 1 1 1 1 1 2 2 1 1 1 1 0 0 0 0 -0 -0 -1 -1 -1 -1 -1 -1 -1 -1 -1 -1 6 11 11 4 9 -1 -1 -1 0 -1 0 1 1 2